[Iaude] MPEC N09: 2002 MN [a=1.81,e=0.50,i=1.0,H=23.71]
    mpec at cfa.harvard.edu 
    mpec at cfa.harvard.edu
       
    Mon Jul  1 22:08:06 EDT 2024
    
    
  
M.P.E.C. 2024-N09                                  Issued 2024 July 2, 02:06 UT
     The Minor Planet Electronic Circulars contain information on unusual
         minor planets, routine data on comets and natural satellites,
         and occasional editorial announcements.  They are published
    on behalf of Division F of the International Astronomical Union by the
          Minor Planet Center, Smithsonian Astrophysical Observatory,
                          Cambridge, MA 02138, U.S.A.
			  
             Prepared using the Tamkin Foundation Computer Network
                              MPC at CFA.HARVARD.EDU
            URL https://www.minorplanetcenter.net/    ISSN 1523-6714
                                    2002 MN                                     
                           Revision to MPEC 2002-M14                            
Additional Observations:
     K02M00N  C2024 07 01.29290215 50 37.106-22 41 48.30         19.99wXEN009F52
     K02M00N  C2024 07 01.30471415 50 47.070-22 42 23.79         19.89wXEN009F52
     K02M00N  C2024 07 01.31655115 50 57.013-22 42 59.20         19.69wXEN009F52
     K02M00N  C2024 07 01.42104015 52 24.672-22 47 59.01         19.96GVEN009F51
     K02M00N |C2024 07 02.04715016 01 20.890-23 15 14.60         19.8 GVEN009807
     K02M00N |C2024 07 02.05057016 01 23.620-23 15 22.70         19.9 GVEN009807
     K02M00N |C2024 07 02.05394016 01 26.260-23 15 32.30         20.1 GVEN009807
Observer details:
807 Cerro Tololo Observatory, La Serena.  Observers T. Linder, R. Holmes.
    0.61-m f/6.8 Ritchey-Chretien + CCD.
F51 Pan-STARRS 1, Haleakala.  Observers J. Herman, T. Lowe, P. Minguez, A.
    Schultz, I. Smith.  Measurers K. Chambers, T. de Boer, J. Fairlamb, H.
    Gao, M. Huber, C.-C. Lin, E. Magnier, Y. Ramanjooloo, R. Wainscoat, R.
    Weryk.  1.8-m Ritchey-Chretien + CCD.
F52 Pan-STARRS 2, Haleakala.  Observers J. Herman, T. Lowe, P. Minguez, A.
    Schultz, I. Smith.  Measurers K. Chambers, T. de Boer, J. Fairlamb, H.
    Gao, M. Huber, C.-C. Lin, E. Magnier, Y. Ramanjooloo, R. Wainscoat, R.
    Weryk.  1.8-m Ritchey-Chretien + CCD.
First and last observations above in comparison with prediction:
Residuals in seconds of arc (or zero decimals in degrees), reference and Delta-T
240701 F52   18-    3-    240702 807   17-    2-    MPO 34019   -1.49 days
Orbital elements:
2002 MN                                                  Earth MOID = 0.0004 AU
Epoch 2024 Mar. 31.0 TT = JDT 2460400.5                 Veres                   
M 342.39299              (2000.0)            P               Q                  
n   0.40319533     Peri.  131.57913     -0.79984175     +0.59993434             
a   1.8146480      Node    85.29399     -0.55597948     -0.72912040             
e   0.4993528      Incl.    1.04750     -0.22614152     -0.32933603             
P   2.44           H   23.71          G   0.15           U   0                  
Residuals in seconds of arc
020617 704  0.3+  0.4-    020619 704  0.8-  0.1+    020622 246  0.9+  0.0
020617 704  0.0   1.8-    020619 704  0.6+  0.0     020622 246  0.8+  0.1+
020617 704  0.1+  0.1+    020619 704  0.3-  0.1+    020623 413  0.2+  0.2+
020617 704  0.4+  0.1+    020619 704  0.1-  0.1+    020623 413  0.1-  0.1+
020617 599  0.3-  0.3-    020619 704  0.5+  0.2+    020623 413  0.1-  0.1+
020617 599  0.1-  0.4+    020619 704  0.2-  0.1-    020702 413  0.1-  0.5+
020617 599  0.5-  0.2-    020619 428  1.3+  0.3+    020702 413  0.1+  0.6+
020617 599  0.0   0.2+    020619 428  0.2-  0.1-    020702 413  0.2+  0.1+
020617 599  0.4+  0.5+    020619 428  1.4+  0.1+    020702 413  0.2+  0.0
020618 704  0.3+  1.2+    020622 941  0.5+  1.5+    020713 950  0.1-  0.1+
020618 704  0.2-  0.6+    020622 941  1.0+  1.6+    020713 950  0.1-  0.1+
020618 704  0.3-  0.6+    020622 941  1.6-  1.3+    020713 950  0.1-  0.3+
020618 704  0.2-  0.2+    020622 941  0.8+  1.3+    020713 950  0.1-  0.2+
020618 704  0.3-  0.1-    020622 941  0.0   0.8+    020715 711 (5.9+  1.0-)
020619 599  0.4+  0.3+    020622 941  0.3+  0.3+    020715 711 (0.5+  4.8-)
020619 599  0.1-  0.0     020622 941  1.8+  0.5+    020715 711 (3.0-  7.1-)
020619 599  0.4-  0.9-    020622 950  0.0   0.1+    020719 413  0.3+  0.5-
020619 844  0.9-  0.5+    020622 950  0.0   0.0     020719 413  0.2-  0.3-
020619 844  1.4-  2.7+    020622 950  0.1+  0.1-    020719 413  0.1+  0.2+
020619 844  0.4-  1.2+    020622 649  0.5-  0.9-    020720 413  0.4-  0.2+
020619 704  0.2+  3.7+    020622 649  0.8-  0.1-    020731 413  0.5+  0.0
020619 704  0.4-  0.2+    020622 649  0.9-  0.2+    020731 413  0.0   0.2+
020619 704  0.5+  0.3+    020622 413  0.1+  0.1-    020809 568  0.3-  0.0
020619 704  0.4+  3.5+    020622 413  0.2-  0.2+    020809 568  0.3-  0.1-
020619 704  0.7-  0.1-    020622 413  0.1+  0.3+    020809 568  0.2-  0.0
020619 704  0.7+  0.4+    020622 413  0.0   0.3+    240701 F52  0.2-  0.1-
020619 704  0.2-  0.1+    020622 246  0.4+  0.6-    240701 F52  0.1+  0.1-
020619 704  0.4+  3.5+    020622 246  0.4-  0.4-    240701 F52  0.0   0.2-
020619 704  0.5-  0.2-    020622 246  0.0   0.6-    240701 F51  0.4+  0.3-
020619 704  0.0   0.4+    020622 246  1.4+  0.0     240702 807  0.3-  0.2-
020619 704  0.9-  0.3+    020622 246  1.3+  0.2+    240702 807  0.2+  0.6+
020619 704  0.4+  3.9+    020622 246  0.0   0.7+    240702 807  0.0   0.3-
Ephemeris:
2002 MN                  a,e,i = 1.81, 0.50, 1                   q = 0.9085
Date    TT    R. A. (2000) Decl.     Delta      r    Elong.  Phase     V
2024 06 02    08 54 21.8 +19 48 10   0.1614  0.9410    58.9   112.7    24.0
...
2024 06 17    11 09 27.4 +06 19 15   0.07923 1.0051    79.9    95.6    21.6
...
2024 06 25    13 52 07.8 -13 02 33   0.06892 1.0496   117.1    59.6    20.1
...
2024 07 01    15 46 13.4 -22 25 38   0.08907 1.0864   140.0    37.0    20.1
2024 07 02    16 00 39.9 -23 13 23   0.09406 1.0927   142.4    34.6    20.2
2024 07 03    16 13 49.9 -23 52 04   0.09939 1.0992   144.5    32.5    20.3
...
2024 07 09    17 11 30.8 -25 46 23   0.1364  1.1389   152.0    24.8    20.8
...
2024 07 17    17 54 26.4 -26 11 21   0.1946  1.1943   154.0    21.9    21.6
...
2024 08 01    18 35 50.5 -25 41 53   0.3230  1.3027   149.1    23.6    22.9
A. U. Tomatic                (C) Copyright 2024 MPC           M.P.E.C. 2024-N09
    
    
More information about the Iaude
mailing list